{"data":{"norad_id":63594,"epoch":"2026-09-20T10:43:22.155744Z","epoch_age_seconds":157193,"freshness":"FRESH","line1":"1 63594U 25076AB  26263.44678421  .00012143  00000+0  44993-3 0  9994","line2":"2 63594  43.0013 302.0059 0001249 254.0907 105.9807 15.27590069 81612","mean_motion":15.27590069,"eccentricity":0.0001249,"inclination_deg":43.0013,"raan_deg":302.0059,"arg_perigee_deg":254.0907,"mean_anomaly_deg":105.9807,"bstar":0.00044993,"rev_number":8161,"period_min":94.266127361162,"perigee_km":482.1619876193,"apogee_km":483.87590437461,"semimajor_km":6861.155945997,"source":"CELESTRAK","updated_at":"2026-09-21T09:00:35.049889Z"}}